Flag for U.S.A. Weather past 2 weeks in Terre Haute, Indiana, U.S.A.

Now
76 °F

Sunny.


Feels Like: 77 °F
Forecast: 59 / 80 °F
Wind: 10 mph from South

Location: Terre Haute International Airport - Hulman Field

Current Time: May 3, 2015 at 9:04:27 PM

Latest Report: May 3, 2015 at 7:53 PM


Visibility: 10 mi

Pressure: 29.99 "Hg

Humidity: 33%

Dew point: 45 °F

Location of Terre HauteLocation

Historic Weather in Terre Haute — Graph

°F

Terre Haute temperature yesterday

Maximum temperature yesterday: 74 °F (at 3:53 PM)
Minimum temperature yesterday: 46 °F (at 6:53 AM)
Average temperature yesterday: 61 °F

Past Weeks' High & Low Weather Summary

 TemperatureHumidityPressure
High79 °F (May 3, 3:53 PM)97% (Apr 19, 12:53 PM)30.16 "Hg (Apr 19, 12:53 PM)
Low30 °F (Apr 24, 6:53 AM)23% (Apr 23, 5:53 PM)29.37 "Hg (Apr 19, 7:53 PM)
Average53 °F61%29.91 "Hg
* Reported Apr 18 7:53 PM — May 3 7:53 PM, Terre Haute, Weather by CustomWeather, © 2015

Note: Actual official high and low records may vary slightly from our data, if they occured in-between our weather recording intervals... More about our weather records

Advertising

Terre Haute weather history for previous 24 hours

 ConditionsComfort  
Time TempWeatherWind HumidityBarometerVisibility
7:53 PM
Sun, May 3
76 °FSunny.10 mph33%29.99 "Hg10 mi
6:53 PM77 °FSunny.12 mph33%29.99 "Hg10 mi
5:53 PM77 °FSunny.13 mph35%29.99 "Hg10 mi
4:53 PM79 °FSunny.14 mph32%29.99 "Hg10 mi
3:53 PM79 °FSunny.14 mph31%30.01 "Hg10 mi
2:53 PM78 °FSunny.16 mph32%30.03 "Hg10 mi
1:53 PM77 °FSunny.13 mph36%30.04 "Hg10 mi
12:53 PM75 °FSunny.12 mph39%30.06 "Hg10 mi
11:53 AM73 °FSunny.13 mph43%30.07 "Hg10 mi
10:53 AM72 °FSunny.12 mph44%30.07 "Hg10 mi
9:53 AM68 °FSunny.9 mph51%30.08 "Hg10 mi
8:53 AM63 °FSunny.8 mph63%30.07 "Hg10 mi
7:53 AM56 °FScattered clouds.No wind77%30.06 "Hg10 mi
6:53 AM57 °FOvercast.No wind74%30.05 "Hg10 mi
5:53 AM59 °FOvercast.6 mph67%30.04 "Hg10 mi
4:53 AM57 °FOvercast.6 mph72%30.04 "Hg10 mi
3:53 AM55 °FClear.3 mph72%30.04 "Hg10 mi
2:53 AM53 °FClear.No wind80%30.03 "Hg10 mi
1:53 AM54 °FClear.No wind77%30.03 "Hg10 mi
12:53 AM56 °FClear.No wind67%30.03 "Hg10 mi
11:53 PM
Sat, May 2
58 °FClear.No wind62%30.04 "Hg10 mi
10:53 PM58 °FClear.3 mph70%30.05 "Hg10 mi
9:53 PM61 °FClear.No wind60%30.04 "Hg10 mi
Weather by CustomWeather, © 2015

See weather overviewHow to use our weather pages